Location: �couen
(49.0206°N, 2.3831°E)
Time: 06:32:45
(UTC+00:00)

Cosmos 1758 - Pass Details

Date: 31 May 2022
Orbit: 538 x 557 km, 82.5° (Epoch: 03 July)

Event Time Altitude Azimuth Distance (km) Brightness Sun altitude
Rises 21:51:43 0° 3° (N) 2,718 7.9 -14.4°
Reaches altitude 10° 21:54:26 10° 22° (NNE) 1,823 6.5 -14.6°
Maximum altitude 21:57:15 18° 67° (ENE) 1,372 5.3 -14.8°
Enters shadow 21:59:14 13° 102° (ESE) 1,609 5.3 -14.9°
